DW6873 Weather Reports


Display with metric or nautical units.
time (UTC)temp
F
wind
direction
speed
MPH
gust
MPH
rain 1hr
in
rain 24hr
in
rain mn
in
humidity
%
barometer
mb
20260507113010 0 0.0 0.0 0.00 0.00 0.00 1011.8
20260507111510 25 223 0.0 0.0 0.00 0.00 0.00 75 1012.0
20260507110002 25 236 0.0 0.0 0.00 0.00 0.00 73 1011.9
20260507104501 25 212 0.0 0.0 0.00 0.00 0.00 75 1011.8
20260507103100 26 274 0.0 0.0 0.00 0.00 0.00 74 1012.0
20260507101600 25 246 0.0 0.0 0.00 0.00 0.00 76 1012.1
20260507100057 25 269 0.0 0.0 0.00 0.00 0.00 76 1012.1
20260507094610 26 184 0.0 0.0 0.00 0.00 0.00 73 1012.2
20260507093059 26 210 0.0 0.0 0.00 0.00 0.00 73 1012.2
20260507091626 27 210 0.0 0.0 0.00 0.00 0.00 71 1012.2
20260507090105 28 275 0.0 0.0 0.00 0.00 0.00 73 1012.2
20260507084555 27 275 0.0 0.0 0.00 0.00 0.00 75 1012.2
20260507083052 26 275 0.0 0.0 0.00 0.00 0.00 75 1012.2
20260507081548 24 275 0.0 0.0 0.00 0.00 0.00 80 1012.2
20260507080046 23 275 0.0 0.0 0.00 0.00 0.00 76 1012.3
20260507074547 24 275 0.0 0.0 0.00 0.00 0.00 79 1012.4
20260507073045 25 275 0.0 0.0 0.00 0.00 0.00 76 1012.3
20260507071514 25 275 0.0 0.0 0.00 0.00 0.00 76 1012.4
20260507070014 25 275 0.0 0.0 0.00 0.00 0.00 75 1012.4
20260507064511 25 275 0.0 0.0 0.00 0.00 0.00 76 1012.4
20260507063010 25 275 0.0 0.0 0.00 0.00 0.00 77 1012.5
20260507061512 23 275 0.0 0.0 0.00 0.00 0.00 79 1012.5
20260507060008 22 275 0.0 0.0 0.00 0.00 0.00 80 1012.5
20260507054535 23 275 0.0 0.0 0.00 0.00 0.00 78 1012.6
20260507053032 24 275 0.0 0.0 0.00 0.00 0.00 76 1012.6
20260507051537 25 275 0.0 0.0 0.00 0.00 0.00 75 1012.6
20260507050026 26 275 0.0 0.0 0.00 0.00 0.00 73 1012.6
20260507044526 27 275 0.0 0.0 0.00 0.00 0.00 72 1012.7
20260507043024 25 275 0.0 0.0 0.00 0.00 0.00 73 1012.7
20260507041521 25 275 0.0 0.0 0.00 0.00 0.00 77 1012.8
20260507040020 25 275 0.0 0.0 0.00 0.00 0.00 74 1012.9
20260507034521 26 275 0.0 0.0 0.00 0.00 0.00 70 1012.9
20260507033011 27 275 0.0 0.0 0.00 0.00 0.00 68 1012.9
20260507031510 28 276 0.0 0.0 0.00 0.00 0.00 67 1012.9
20260507030002 30 275 0.0 0.0 0.00 0.00 0.00 64 1012.9
20260507024602 32 275 0.0 0.0 0.00 0.00 0.00 60 1012.8
20260507023056 37 360 0.0 0.0 0.00 0.00 0.00 54 1012.9
20260507021551 40 339 0.0 0.0 0.00 0.00 0.00 46 1012.9
20260507020052 42 339 0.0 0.0 0.00 0.00 0.00 45 1012.9
20260507014546 44 340 0.0 0.0 0.00 0.00 0.00 43 1013.0
20260507013045 47 345 0.0 0.0 0.00 0.00 0.00 41 1013.0
20260507011545 48 20 0.0 0.0 0.00 0.00 0.00 38 1013.0
20260507010049 49 350 0.0 0.0 0.00 0.00 0.00 37 1013.1
20260507004534 49 347 0.0 0.0 0.00 0.00 0.00 37 1013.1
20260507003032 49 328 0.0 0.0 0.00 0.00 0.00 35 1013.3
20260507001529 49 331 0.0 0.0 0.00 0.00 0.00 36 1013.4
20260507000027 50 320 0.0 0.0 0.00 0.00 0.00 36 1013.5
20260506234525 50 325 0.0 0.0 0.00 0.00 0.00 36 1013.7
20260506233024 50 307 0.0 0.0 0.00 0.00 0.00 38 1013.8
20260506231522 49 353 0.0 0.0 0.00 0.00 0.00 37 1014.0
20260506230017 50 304 0.0 0.0 0.00 0.00 0.00 38 1014.1
20260506224516 49 330 0.0 1.0 0.00 0.00 0.00 38 1014.3
20260506223012 48 317 0.0 1.0 0.00 0.00 0.00 39 1014.4
20260506221508 48 297 0.0 0.0 0.00 0.00 0.00 41 1014.7
20260506220007 48 295 0.0 0.0 0.00 0.00 0.00 40 1014.9
20260506214505 49 326 0.0 0.0 0.00 0.00 0.00 38 1015.0
20260506213004 48 338 0.0 0.0 0.00 0.00 0.00 38 1015.2
20260506211600 49 304 0.0 1.0 0.00 0.00 0.00 42 1015.3
20260506210057 48 13 0.0 0.0 0.00 0.00 0.00 38 1015.6
20260506204604 48 356 0.0 0.0 0.00 0.00 0.00 39 1015.8
20260506203052 48 321 0.0 0.0 0.00 0.00 0.00 39 1016.0
20260506201547 47 302 0.0 1.0 0.00 0.00 0.00 38 1016.2
20260506200044 47 304 0.0 2.0 0.00 0.00 0.00 40 1016.4
20260506194543 47 323 0.0 2.0 0.00 0.00 0.00 40 1016.5
20260506193042 47 316 0.0 1.0 0.00 0.00 0.00 43 1016.6
20260506191539 46 20 0.0 1.0 0.00 0.00 0.00 42 1016.9
20260506190036 46 326 0.0 2.0 0.00 0.00 0.00 46 1017.0
20260506184534 45 353 0.0 1.0 0.00 0.00 0.00 44 1017.1
20260506183031 45 1 0.0 1.0 0.00 0.00 0.00 45 1017.3
20260506181528 44 323 0.0 1.0 0.00 0.00 0.00 44 1017.5
20260506180056 45 325 0.0 1.0 0.00 0.00 0.00 46 1017.6
20260506174601 45 358 0.0 0.0 0.00 0.00 0.00 47 1017.8
20260506173115 43 319 0.0 6.0 0.00 0.00 0.00 46 1018.1
20260506171550 42 333 0.0 1.0 0.00 0.00 0.00 47 1018.3
20260506170047 42 334 0.0 1.0 0.00 0.00 0.00 50 1018.5
20260506164542 42 345 0.0 0.0 0.00 0.00 0.00 49 1018.6
20260506163042 41 342 0.0 0.0 0.00 0.00 0.00 52 1018.7
20260506161539 41 340 0.0 0.0 0.00 0.00 0.00 52 1018.8
20260506160037 41 309 0.0 1.0 0.00 0.00 0.00 52 1018.9
20260506154539 39 10 0.0 0.0 0.00 0.00 0.00 53 1019.0
20260506153041 40 300 0.0 0.0 0.00 0.00 0.00 52 1019.0
20260506151532 39 314 0.0 0.0 0.00 0.00 0.00 51 1019.2
20260506150040 40 299 0.0 0.0 0.00 0.00 0.00 55 1019.2
20260506144550 39 299 0.0 0.0 0.00 0.00 0.00 57 1019.4
20260506143100 38 304 0.0 0.0 0.00 0.00 0.00 58 1019.3
20260506141600 37 323 0.0 0.0 0.00 0.00 0.00 59 1019.4
20260506140115 37 325 0.0 0.0 0.00 0.00 0.00 59 1019.4
20260506134556 36 319 0.0 0.0 0.00 0.00 0.00 61 1019.4
20260506133128 37 265 0.0 0.0 0.00 0.00 0.00 67 1019.4
20260506131553 31 265 0.0 0.0 0.00 0.00 0.00 76 1019.3
20260506130133 28 264 0.0 0.0 0.00 0.00 0.00 78 1019.3
20260506124551 27 264 0.0 0.0 0.00 0.00 0.00 79 1019.2
20260506123048 27 264 0.0 0.0 0.00 0.00 0.00 80 1019.0
20260506121551 0 0.0 0.0 0.00 0.00 0.00 1018.8
20260506120022 0 0.0 0.0 0.00 0.00 0.00 1018.6
20260506114512 0 0.0 0.0 0.00 0.00 0.00 1018.5